TimeEDT,TemperatureF,Dew PointF,Humidity,Sea Level PressureIn,VisibilityMPH,Wind Direction,Wind SpeedMPH,Gust SpeedMPH,PrecipitationIn,Events,Conditions,WindDirDegrees,DateUTC
12:51 AM,30.9,28.0,89,30.34,10.0,Calm,Calm,-,N/A,,Partly Cloudy,0,2011-10-31 04:51:00
1:51 AM,28.0,26.1,92,30.35,10.0,Calm,Calm,-,N/A,,Partly Cloudy,0,2011-10-31 05:51:00
2:51 AM,28.0,26.1,92,30.36,10.0,Calm,Calm,-,N/A,,Clear,0,2011-10-31 06:51:00
3:51 AM,30.0,27.0,88,30.37,10.0,South,3.5,-,N/A,,Clear,170,2011-10-31 07:51:00
4:51 AM,28.0,26.1,92,30.37,10.0,Calm,Calm,-,N/A,,Clear,0,2011-10-31 08:51:00
5:51 AM,26.6,26.6,100,30.37,10.0,Calm,Calm,-,N/A,,Clear,0,2011-10-31 09:51:00
6:51 AM,27.0,26.1,96,30.39,10.0,Calm,Calm,-,N/A,,Partly Cloudy,0,2011-10-31 10:51:00
7:51 AM,27.0,25.0,92,30.40,10.0,Calm,Calm,-,N/A,,Partly Cloudy,0,2011-10-31 11:51:00
8:51 AM,30.0,28.9,96,30.40,10.0,Calm,Calm,-,N/A,,Partly Cloudy,0,2011-10-31 12:51:00
9:51 AM,36.0,30.9,82,30.40,10.0,South,3.5,-,N/A,,Scattered Clouds,170,2011-10-31 13:51:00
10:51 AM,39.0,30.9,73,30.40,10.0,South,6.9,-,N/A,,Scattered Clouds,170,2011-10-31 14:51:00
11:51 AM,41.0,30.9,67,30.40,10.0,South,9.2,-,N/A,,Mostly Cloudy,170,2011-10-31 15:51:00
12:51 PM,44.1,30.9,60,30.38,10.0,South,9.2,-,N/A,,Overcast,180,2011-10-31 16:51:00
1:51 PM,46.0,30.9,56,30.35,10.0,South,16.1,20.7,N/A,,Overcast,180,2011-10-31 17:51:00
2:51 PM,48.0,30.0,50,30.34,10.0,South,13.8,17.3,N/A,,Mostly Cloudy,180,2011-10-31 18:51:00
3:51 PM,48.0,28.9,48,30.32,10.0,South,13.8,-,N/A,,Overcast,180,2011-10-31 19:51:00
4:51 PM,46.9,28.9,50,30.33,10.0,South,8.1,16.1,N/A,,Overcast,180,2011-10-31 20:51:00
5:51 PM,45.0,28.9,53,30.34,10.0,South,5.8,-,N/A,,Overcast,170,2011-10-31 21:51:00
6:51 PM,45.0,30.0,56,30.36,10.0,South,5.8,-,N/A,,Overcast,170,2011-10-31 22:51:00
7:51 PM,45.0,30.0,56,30.35,10.0,SSE,8.1,-,N/A,,Mostly Cloudy,160,2011-10-31 23:51:00
8:51 PM,43.0,30.0,60,30.35,10.0,Calm,Calm,-,N/A,,Overcast,0,2011-11-01 00:51:00
9:51 PM,39.9,30.0,68,30.35,10.0,Calm,Calm,-,N/A,,Mostly Cloudy,0,2011-11-01 01:51:00
10:51 PM,36.0,30.9,82,30.36,10.0,Calm,Calm,-,N/A,,Mostly Cloudy,0,2011-11-01 02:51:00
11:51 PM,35.1,32.0,89,30.35,10.0,Calm,Calm,-,N/A,,Overcast,0,2011-11-01 03:51:00